| time (UTC) | temp F | wind direction | speed knots | gust knots | rain 1hr in | rain 24hr in | rain mn in | humidity % | barometer mb |
| 20260507235844 | 78 | 245 | 2.6 | 7.8 | 0.00 | 0.00 | 0.00 | 32 | 1010.3 |
| 20260507235344 | 78 | 288 | 2.6 | 5.2 | 0.00 | 0.00 | 0.00 | 27 | 1010.3 |
| 20260507235102 | 78 | 212 | 2.6 | 5.2 | 0.00 | 0.00 | 0.00 | 32 | 1010.4 |
| 20260507234345 | 77 | 273 | 3.5 | 7.0 | 0.00 | 0.00 | 0.00 | 31 | 1010.4 |
| 20260507233844 | 76 | 289 | 4.3 | 8.7 | 0.00 | 0.00 | 0.00 | 34 | 1010.4 |
| 20260507233342 | 76 | 213 | 4.3 | 8.7 | 0.00 | 0.00 | 0.00 | 31 | 1010.4 |
| 20260507233112 | 76 | 191 | 5.2 | 9.6 | 0.00 | 0.00 | 0.00 | 32 | 1010.5 |
| 20260507232342 | 77 | 203 | 5.2 | 9.6 | 0.00 | 0.00 | 0.00 | 29 | 1010.6 |
| 20260507231841 | 78 | 214 | 4.3 | 8.7 | 0.00 | 0.00 | 0.00 | 31 | 1010.6 |
| 20260507231341 | 78 | 247 | 3.5 | 7.8 | 0.00 | 0.00 | 0.00 | 31 | 1010.8 |
| 20260507230840 | 78 | 268 | 3.5 | 7.8 | 0.00 | 0.00 | 0.00 | 30 | 1010.8 |
| 20260507230334 | 78 | 216 | 4.3 | 10.4 | 0.00 | 0.00 | 0.00 | 27 | 1010.9 |
| 20260507225607 | 77 | 290 | 4.3 | 10.4 | 0.00 | 0.00 | 0.00 | 31 | 1011.1 |
| 20260507224831 | 77 | 264 | 6.1 | 12.2 | 0.00 | 0.00 | 0.00 | 32 | 1011.1 |
| 20260507224332 | 76 | 254 | 7.0 | 12.2 | 0.00 | 0.00 | 0.00 | 30 | 1011.2 |
| 20260507223829 | 77 | 169 | 5.2 | 10.4 | 0.00 | 0.00 | 0.00 | 31 | 1011.2 |
| 20260507223327 | 77 | 206 | 5.2 | 11.3 | 0.00 | 0.00 | 0.00 | 29 | 1011.3 |
| 20260507222829 | 76 | 265 | 5.2 | 11.3 | 0.00 | 0.00 | 0.00 | 33 | 1011.3 |
| 20260507222323 | 75 | 258 | 6.1 | 10.4 | 0.00 | 0.00 | 0.00 | 36 | 1011.3 |
| 20260507221823 | 75 | 212 | 6.1 | 12.2 | 0.00 | 0.00 | 0.00 | 33 | 1011.4 |
| 20260507221323 | 75 | 231 | 6.1 | 12.2 | 0.00 | 0.00 | 0.00 | 33 | 1011.4 |
| 20260507220821 | 76 | 212 | 6.1 | 12.2 | 0.00 | 0.00 | 0.00 | 31 | 1011.5 |
| 20260507220322 | 76 | 222 | 7.0 | 12.2 | 0.00 | 0.00 | 0.00 | 36 | 1011.5 |
| 20260507215538 | 76 | 266 | 7.0 | 10.4 | 0.00 | 0.00 | 0.00 | 35 | 1011.6 |
| 20260507214817 | 75 | 251 | 7.8 | 13.0 | 0.00 | 0.00 | 0.00 | 36 | 1011.8 |
| 20260507214315 | 75 | 180 | 8.7 | 13.0 | 0.00 | 0.00 | 0.00 | 35 | 1011.8 |
| 20260507213814 | 75 | 245 | 9.6 | 14.8 | 0.00 | 0.00 | 0.00 | 38 | 1011.8 |
| 20260507213535 | 75 | 227 | 7.8 | 14.8 | 0.00 | 0.00 | 0.00 | 38 | 1012.0 |
| 20260507212812 | 75 | 212 | 6.1 | 11.3 | 0.00 | 0.00 | 0.00 | 39 | 1012.0 |
| 20260507212312 | 75 | 180 | 7.0 | 13.0 | 0.00 | 0.00 | 0.00 | 38 | 1012.1 |
| 20260507211811 | 74 | 180 | 8.7 | 13.0 | 0.00 | 0.00 | 0.00 | 38 | 1012.1 |
| 20260507210811 | 74 | 180 | 8.7 | 14.8 | 0.00 | 0.00 | 0.00 | 37 | 1012.2 |
| 20260507210311 | 74 | 180 | 8.7 | 13.9 | 0.00 | 0.00 | 0.00 | 39 | 1012.2 |
| 20260507205808 | 74 | 180 | 8.7 | 13.9 | 0.00 | 0.00 | 0.00 | 38 | 1012.3 |
| 20260507205532 | 74 | 180 | 8.7 | 14.8 | 0.00 | 0.00 | 0.00 | 39 | 1012.3 |
| 20260507204808 | 74 | 180 | 8.7 | 14.8 | 0.00 | 0.00 | 0.00 | 40 | 1012.3 |
| 20260507204306 | 74 | 180 | 8.7 | 13.9 | 0.00 | 0.00 | 0.00 | 40 | 1012.3 |
| 20260507203806 | 74 | 180 | 8.7 | 13.9 | 0.00 | 0.00 | 0.00 | 41 | 1012.3 |
| 20260507203306 | 74 | 180 | 8.7 | 17.4 | 0.00 | 0.00 | 0.00 | 40 | 1012.4 |
| 20260507203027 | 74 | 180 | 10.4 | 17.4 | 0.00 | 0.00 | 0.00 | 42 | 1012.4 |
| 20260507202306 | 74 | 180 | 8.7 | 13.9 | 0.00 | 0.00 | 0.00 | 41 | 1012.4 |
| 20260507201805 | 74 | 180 | 8.7 | 13.0 | 0.00 | 0.00 | 0.00 | 43 | 1012.4 |
| 20260507201523 | 74 | 180 | 9.6 | 14.8 | 0.00 | 0.00 | 0.00 | 43 | 1012.5 |
| 20260507200801 | 73 | 180 | 9.6 | 14.8 | 0.00 | 0.00 | 0.00 | 44 | 1012.5 |
| 20260507200302 | 73 | 180 | 8.7 | 14.8 | 0.00 | 0.00 | 0.00 | 43 | 1012.5 |
| 20260507195801 | 73 | 180 | 9.6 | 14.8 | 0.00 | 0.00 | 0.00 | 44 | 1012.6 |
| 20260507195259 | 73 | 180 | 8.7 | 14.8 | 0.00 | 0.00 | 0.00 | 43 | 1012.6 |
| 20260507194800 | 73 | 180 | 7.8 | 13.0 | 0.00 | 0.00 | 0.00 | 45 | 1012.6 |
| 20260507194258 | 73 | 180 | 7.8 | 13.0 | 0.00 | 0.00 | 0.00 | 45 | 1012.6 |
| 20260507194020 | 73 | 180 | 7.0 | 13.0 | 0.00 | 0.00 | 0.00 | 48 | 1012.6 |
| 20260507193259 | 73 | 180 | 7.0 | 13.0 | 0.00 | 0.00 | 0.00 | 48 | 1012.6 |
| 20260507192756 | 72 | 180 | 7.8 | 13.0 | 0.00 | 0.00 | 0.00 | 49 | 1012.6 |
| 20260507192255 | 72 | 180 | 7.8 | 14.8 | 0.00 | 0.00 | 0.00 | 49 | 1012.6 |
| 20260507191756 | 71 | 180 | 8.7 | 14.8 | 0.00 | 0.00 | 0.00 | 52 | 1012.7 |
| 20260507191249 | 71 | 180 | 8.7 | 13.9 | 0.00 | 0.00 | 0.00 | 47 | 1012.7 |
| 20260507190749 | 71 | 180 | 9.6 | 14.8 | 0.00 | 0.00 | 0.00 | 47 | 1012.8 |
| 20260507190250 | 71 | 180 | 9.6 | 14.8 | 0.00 | 0.00 | 0.00 | 47 | 1012.9 |
| 20260507185746 | 71 | 180 | 9.6 | 14.8 | 0.00 | 0.00 | 0.00 | 47 | 1012.9 |
| 20260507185245 | 71 | 180 | 8.7 | 14.8 | 0.00 | 0.00 | 0.00 | 47 | 1012.9 |
| 20260507184746 | 71 | 180 | 7.8 | 13.0 | 0.00 | 0.00 | 0.00 | 51 | 1013.0 |
| 20260507184242 | 70 | 180 | 8.7 | 13.0 | 0.00 | 0.00 | 0.00 | 47 | 1013.0 |
| 20260507184004 | 70 | 180 | 8.7 | 13.0 | 0.00 | 0.00 | 0.00 | 49 | 1013.0 |
| 20260507183242 | 69 | 180 | 8.7 | 13.0 | 0.00 | 0.00 | 0.00 | 53 | 1013.1 |
| 20260507182740 | 69 | 180 | 8.7 | 13.0 | 0.00 | 0.00 | 0.00 | 53 | 1013.3 |
| 20260507182241 | 69 | 180 | 8.7 | 13.9 | 0.00 | 0.00 | 0.00 | 52 | 1013.3 |
| 20260507182006 | 69 | 180 | 9.6 | 13.9 | 0.00 | 0.00 | 0.00 | 50 | 1013.3 |
| 20260507181236 | 68 | 180 | 9.6 | 14.8 | 0.00 | 0.00 | 0.00 | 55 | 1013.4 |
| 20260507180735 | 68 | 180 | 8.7 | 14.8 | 0.00 | 0.00 | 0.00 | 57 | 1013.4 |
| 20260507180237 | 67 | 180 | 9.6 | 13.0 | 0.00 | 0.00 | 0.00 | 52 | 1013.5 |
| 20260507175958 | 67 | 180 | 10.4 | 15.6 | 0.00 | 0.00 | 0.00 | 52 | 1013.5 |
| 20260507175230 | 67 | 180 | 10.4 | 15.6 | 0.00 | 0.00 | 0.00 | 54 | 1013.5 |
| 20260507174730 | 66 | 180 | 11.3 | 15.6 | 0.00 | 0.00 | 0.00 | 54 | 1013.5 |
| 20260507174456 | 66 | 180 | 11.3 | 14.8 | 0.00 | 0.00 | 0.00 | 54 | 1013.5 |
| 20260507173731 | 66 | 180 | 11.3 | 16.5 | 0.00 | 0.00 | 0.00 | 55 | 1013.5 |
| 20260507173228 | 66 | 180 | 10.4 | 16.5 | 0.00 | 0.00 | 0.00 | 53 | 1013.6 |
| 20260507172727 | 66 | 180 | 11.3 | 14.8 | 0.00 | 0.00 | 0.00 | 55 | 1013.7 |
| 20260507172447 | 65 | 180 | 11.3 | 14.8 | 0.00 | 0.00 | 0.00 | 56 | 1013.8 |
| 20260507171726 | 65 | 180 | 11.3 | 16.5 | 0.00 | 0.00 | 0.00 | 56 | 1013.7 |
| 20260507171226 | 65 | 180 | 12.2 | 16.5 | 0.00 | 0.00 | 0.00 | 56 | 1013.7 |
| 20260507170726 | 64 | 180 | 12.2 | 17.4 | 0.00 | 0.00 | 0.00 | 57 | 1013.7 |
| 20260507170226 | 64 | 180 | 12.2 | 17.4 | 0.00 | 0.00 | 0.00 | 56 | 1013.8 |
| 20260507165726 | 64 | 180 | 12.2 | 20.0 | 0.00 | 0.00 | 0.00 | 55 | 1013.8 |
| 20260507165444 | 64 | 180 | 11.3 | 20.0 | 0.00 | 0.00 | 0.00 | 58 | 1013.8 |
| 20260507164725 | 64 | 180 | 11.3 | 17.4 | 0.00 | 0.00 | 0.00 | 61 | 1013.9 |
| 20260507164453 | 63 | 180 | 11.3 | 17.4 | 0.00 | 0.00 | 0.00 | 58 | 1014.0 |
| 20260507163726 | 63 | 180 | 11.3 | 16.5 | 0.00 | 0.00 | 0.00 | 59 | 1013.9 |
| 20260507163226 | 63 | 180 | 12.2 | 17.4 | 0.00 | 0.00 | 0.00 | 59 | 1013.9 |
| 20260507162725 | 63 | 180 | 12.2 | 17.4 | 0.00 | 0.00 | 0.00 | 60 | 1013.8 |
| 20260507162226 | 62 | 180 | 11.3 | 16.5 | 0.00 | 0.00 | 0.00 | 60 | 1013.8 |
| 20260507161950 | 62 | 180 | 11.3 | 17.4 | 0.00 | 0.00 | 0.00 | 61 | 1013.8 |
| 20260507161226 | 62 | 180 | 12.2 | 17.4 | 0.00 | 0.00 | 0.00 | 60 | 1013.9 |
| 20260507160723 | 62 | 180 | 11.3 | 15.6 | 0.00 | 0.00 | 0.00 | 60 | 1013.7 |
| 20260507160224 | 61 | 180 | 11.3 | 17.4 | 0.00 | 0.00 | 0.00 | 62 | 1013.8 |
| 20260507155724 | 61 | 180 | 10.4 | 17.4 | 0.00 | 0.00 | 0.00 | 62 | 1013.8 |
| 20260507155217 | 61 | 180 | 10.4 | 15.6 | 0.00 | 0.00 | 0.00 | 63 | 1013.9 |
| 20260507154718 | 61 | 180 | 10.4 | 14.8 | 0.00 | 0.00 | 0.00 | 63 | 1013.9 |
| 20260507154442 | 60 | 180 | 10.4 | 14.8 | 0.00 | 0.00 | 0.00 | 62 | 1014.0 |
| 20260507153713 | 60 | 180 | 9.6 | 16.5 | 0.00 | 0.00 | 0.00 | 64 | 1014.1 |
| 20260507153212 | 60 | 180 | 9.6 | 16.5 | 0.00 | 0.00 | 0.00 | 65 | 1014.0 |
| 20260507152714 | 60 | 180 | 10.4 | 16.5 | 0.00 | 0.00 | 0.00 | 64 | 1014.0 |
| 20260507152426 | 60 | 180 | 12.2 | 20.0 | 0.00 | 0.00 | 0.00 | 65 | 1014.0 |
| 20260507151709 | 60 | 180 | 10.4 | 20.0 | 0.00 | 0.00 | 0.00 | 65 | 1013.8 |
| 20260507151210 | 61 | 180 | 7.0 | 17.4 | 0.00 | 0.00 | 0.00 | 64 | 1013.7 |
| 20260507150702 | 61 | 180 | 7.8 | 13.0 | 0.00 | 0.00 | 0.00 | 68 | 1013.8 |
| 20260507150202 | 60 | 180 | 8.7 | 13.0 | 0.00 | 0.00 | 0.00 | 69 | 1013.8 |
| 20260507145928 | 60 | 180 | 7.8 | 12.2 | 0.00 | 0.00 | 0.00 | 67 | 1013.7 |
| 20260507145159 | 60 | 180 | 6.1 | 11.3 | 0.00 | 0.00 | 0.00 | 70 | 1013.7 |
| 20260507144919 | 59 | 180 | 5.2 | 11.3 | 0.00 | 0.00 | 0.00 | 70 | 1013.5 |
| 20260507144200 | 58 | 180 | 4.3 | 8.7 | 0.00 | 0.00 | 0.00 | 74 | 1013.5 |
| 20260507143655 | 58 | 180 | 4.3 | 8.7 | 0.00 | 0.00 | 0.00 | 74 | 1013.5 |
| 20260507143154 | 57 | 180 | 5.2 | 12.2 | 0.00 | 0.00 | 0.00 | 73 | 1013.6 |
| 20260507142657 | 57 | 180 | 7.0 | 12.2 | 0.00 | 0.00 | 0.00 | 73 | 1013.5 |
| 20260507142151 | 57 | 180 | 6.1 | 12.2 | 0.00 | 0.00 | 0.00 | 73 | 1013.4 |
| 20260507141149 | 56 | 180 | 1.7 | 5.2 | 0.00 | 0.00 | 0.00 | 77 | 1013.3 |
| 20260507140648 | 55 | 180 | 1.7 | 5.2 | 0.00 | 0.00 | 0.00 | 77 | 1013.0 |
| 20260507140146 | 55 | 180 | 1.7 | 5.2 | 0.00 | 0.00 | 0.00 | 77 | 1012.9 |
| 20260507135647 | 55 | 180 | 0.9 | 5.2 | 0.00 | 0.00 | 0.00 | 77 | 1013.0 |
| 20260507135145 | 54 | 180 | 0.9 | 3.5 | 0.00 | 0.00 | 0.00 | 77 | 1013.0 |
| 20260507134644 | 54 | 180 | 1.7 | 5.2 | 0.00 | 0.00 | 0.00 | 77 | 1012.8 |
| 20260507134405 | 54 | 180 | 2.6 | 7.0 | 0.00 | 0.00 | 0.00 | 77 | 1012.8 |
| 20260507133643 | 55 | 180 | 2.6 | 7.0 | 0.00 | 0.00 | 0.00 | 77 | 1012.8 |
| 20260507133142 | 55 | 180 | 2.6 | 7.0 | 0.00 | 0.00 | 0.00 | 76 | 1012.8 |
| 20260507132643 | 55 | 180 | 1.7 | 7.0 | 0.00 | 0.00 | 0.00 | 76 | 1012.9 |
| 20260507132142 | 55 | 180 | 4.3 | 11.3 | 0.00 | 0.00 | 0.00 | 76 | 1012.9 |
| 20260507131640 | 55 | 180 | 5.2 | 11.3 | 0.00 | 0.00 | 0.00 | 75 | 1012.8 |
| 20260507131141 | 55 | 180 | 4.3 | 7.8 | 0.00 | 0.00 | 0.00 | 75 | 1012.9 |
| 20260507130902 | 55 | 180 | 3.5 | 8.7 | 0.00 | 0.00 | 0.00 | 75 | 1012.8 |
| 20260507130138 | 55 | 180 | 3.5 | 8.7 | 0.00 | 0.00 | 0.00 | 76 | 1012.7 |
| 20260507125641 | 55 | 180 | 5.2 | 9.6 | 0.00 | 0.00 | 0.00 | 75 | 1012.7 |
| 20260507125137 | 55 | 180 | 4.3 | 9.6 | 0.00 | 0.00 | 0.00 | 74 | 1012.8 |
| 20260507124636 | 55 | 180 | 5.2 | 13.0 | 0.00 | 0.00 | 0.00 | 75 | 1012.7 |
| 20260507124137 | 55 | 180 | 7.0 | 13.0 | 0.00 | 0.00 | 0.00 | 74 | 1012.5 |
| 20260507123635 | 55 | 180 | 9.6 | 14.8 | 0.00 | 0.00 | 0.00 | 74 | 1012.6 |
| 20260507123357 | 55 | 180 | 10.4 | 15.6 | 0.00 | 0.00 | 0.00 | 74 | 1012.6 |
| 20260507122635 | 55 | 180 | 9.6 | 15.6 | 0.00 | 0.00 | 0.00 | 74 | 1012.6 |
| 20260507122134 | 55 | 180 | 9.6 | 14.8 | 0.00 | 0.00 | 0.00 | 73 | 1012.5 |
| 20260507121631 | 55 | 180 | 8.7 | 14.8 | 0.00 | 0.00 | 0.00 | 74 | 1012.5 |
| 20260507121352 | 56 | 180 | 9.6 | 14.8 | 0.00 | 0.00 | 0.00 | 73 | 1012.6 |
| 20260507120853 | 56 | 180 | 10.4 | 18.2 | 0.00 | 0.00 | 0.00 | 73 | 1012.6 |
| 20260507120130 | 56 | 180 | 10.4 | 18.2 | 0.00 | 0.00 | 0.00 | 72 | 1012.6 |
| 20260507115852 | 56 | 180 | 9.6 | 15.6 | 0.00 | 0.00 | 0.00 | 72 | 1012.6 |
| 20260507115350 | 56 | 180 | 9.6 | 15.6 | 0.00 | 0.00 | 0.00 | 72 | 1012.7 |
| 20260507114629 | 56 | 180 | 10.4 | 15.6 | 0.00 | 0.00 | 0.00 | 72 | 1012.8 |
| 20260507114129 | 56 | 180 | 9.6 | 16.5 | 0.00 | 0.00 | 0.00 | 71 | 1012.8 |
| 20260507113628 | 56 | 180 | 9.6 | 16.5 | 0.00 | 0.00 | 0.00 | 71 | 1012.8 |
| 20260507113128 | 56 | 180 | 8.7 | 13.0 | 0.00 | 0.00 | 0.00 | 71 | 1012.7 |
| 20260507112855 | 56 | 180 | 9.6 | 15.6 | 0.00 | 0.00 | 0.00 | 70 | 1012.7 |
| 20260507112120 | 56 | 180 | 8.7 | 15.6 | 0.00 | 0.00 | 0.00 | 70 | 1012.7 |
| 20260507111620 | 56 | 180 | 8.7 | 13.0 | 0.00 | 0.00 | 0.00 | 70 | 1012.7 |
| 20260507111122 | 56 | 180 | 9.6 | 13.9 | 0.00 | 0.00 | 0.00 | 70 | 1012.6 |
| 20260507110614 | 56 | 180 | 8.7 | 13.9 | 0.00 | 0.00 | 0.00 | 71 | 1012.7 |
| 20260507110115 | 55 | 180 | 7.0 | 12.2 | 0.00 | 0.00 | 0.00 | 72 | 1012.8 |
| 20260507105615 | 55 | 180 | 5.2 | 10.4 | 0.00 | 0.00 | 0.00 | 73 | 1012.8 |
| 20260507105107 | 55 | 180 | 4.3 | 10.4 | 0.00 | 0.00 | 0.00 | 73 | 1012.8 |
| 20260507104609 | 54 | 180 | 4.3 | 8.7 | 0.00 | 0.00 | 0.00 | 73 | 1012.8 |
| 20260507103609 | 55 | 180 | 5.2 | 10.4 | 0.00 | 0.00 | 0.00 | 73 | 1012.7 |
| 20260507103108 | 55 | 180 | 6.1 | 10.4 | 0.00 | 0.00 | 0.00 | 73 | 1012.7 |
| 20260507102610 | 56 | 180 | 7.0 | 11.3 | 0.00 | 0.00 | 0.00 | 72 | 1012.7 |
| 20260507102110 | 56 | 180 | 8.7 | 13.0 | 0.00 | 0.00 | 0.00 | 72 | 1012.8 |
| 20260507101609 | 56 | 180 | 8.7 | 13.0 | 0.00 | 0.00 | 0.00 | 72 | 1012.7 |
| 20260507101110 | 56 | 180 | 8.7 | 13.0 | 0.00 | 0.00 | 0.00 | 71 | 1012.6 |
| 20260507100609 | 56 | 180 | 9.6 | 17.4 | 0.00 | 0.00 | 0.00 | 71 | 1012.6 |
| 20260507100107 | 56 | 180 | 9.6 | 17.4 | 0.00 | 0.00 | 0.00 | 70 | 1012.6 |
| 20260507095609 | 56 | 180 | 9.6 | 13.0 | 0.00 | 0.00 | 0.00 | 70 | 1012.6 |
| 20260507095334 | 56 | 180 | 8.7 | 14.8 | 0.00 | 0.00 | 0.00 | 69 | 1012.7 |
| 20260507094605 | 56 | 180 | 8.7 | 14.8 | 0.00 | 0.00 | 0.00 | 69 | 1012.7 |
| 20260507094104 | 56 | 180 | 7.0 | 10.4 | 0.00 | 0.00 | 0.00 | 68 | 1012.7 |
| 20260507093605 | 56 | 180 | 7.0 | 10.4 | 0.00 | 0.00 | 0.00 | 68 | 1012.7 |
| 20260507093105 | 56 | 180 | 7.8 | 10.4 | 0.00 | 0.00 | 0.00 | 67 | 1012.8 |
| 20260507092606 | 56 | 180 | 7.8 | 13.0 | 0.00 | 0.00 | 0.00 | 67 | 1012.8 |
| 20260507092104 | 56 | 180 | 8.7 | 13.0 | 0.00 | 0.00 | 0.00 | 67 | 1012.8 |
| 20260507091826 | 56 | 180 | 7.0 | 10.4 | 0.00 | 0.00 | 0.00 | 67 | 1012.7 |
| 20260507091104 | 56 | 180 | 6.1 | 9.6 | 0.00 | 0.00 | 0.00 | 68 | 1012.7 |
| 20260507090604 | 56 | 180 | 5.2 | 9.6 | 0.00 | 0.00 | 0.00 | 68 | 1012.6 |
| 20260507085601 | 56 | 180 | 5.2 | 10.4 | 0.00 | 0.00 | 0.00 | 67 | 1012.6 |
| 20260507085056 | 57 | 180 | 5.2 | 10.4 | 0.00 | 0.00 | 0.00 | 66 | 1012.6 |
| 20260507084555 | 57 | 180 | 6.1 | 10.4 | 0.00 | 0.00 | 0.00 | 66 | 1012.6 |
| 20260507084058 | 57 | 180 | 7.0 | 11.3 | 0.00 | 0.00 | 0.00 | 65 | 1012.6 |
| 20260507083817 | 57 | 180 | 5.2 | 11.3 | 0.00 | 0.00 | 0.00 | 65 | 1012.6 |
| 20260507083052 | 57 | 180 | 4.3 | 9.6 | 0.00 | 0.00 | 0.00 | 65 | 1012.5 |
| 20260507082552 | 57 | 180 | 4.3 | 9.6 | 0.00 | 0.00 | 0.00 | 65 | 1012.4 |
| 20260507082309 | 57 | 180 | 4.3 | 9.6 | 0.00 | 0.00 | 0.00 | 66 | 1012.4 |
| 20260507081547 | 57 | 180 | 5.2 | 9.6 | 0.00 | 0.00 | 0.00 | 65 | 1012.4 |
| 20260507081047 | 57 | 180 | 4.3 | 9.6 | 0.00 | 0.00 | 0.00 | 65 | 1012.4 |
| 20260507080544 | 58 | 180 | 5.2 | 10.4 | 0.00 | 0.00 | 0.00 | 64 | 1012.5 |
| 20260507080043 | 58 | 180 | 4.3 | 10.4 | 0.00 | 0.00 | 0.00 | 63 | 1012.4 |
| 20260507075543 | 59 | 180 | 5.2 | 11.3 | 0.00 | 0.00 | 0.00 | 63 | 1012.4 |
| 20260507075043 | 59 | 180 | 7.0 | 12.2 | 0.00 | 0.00 | 0.00 | 61 | 1012.4 |
| 20260507074540 | 60 | 180 | 7.0 | 13.9 | 0.00 | 0.00 | 0.00 | 60 | 1012.3 |
| 20260507074040 | 60 | 180 | 8.7 | 13.9 | 0.00 | 0.00 | 0.00 | 59 | 1012.3 |
| 20260507073539 | 60 | 180 | 9.6 | 16.5 | 0.00 | 0.00 | 0.00 | 58 | 1012.3 |
| 20260507073041 | 61 | 180 | 10.4 | 16.5 | 0.00 | 0.00 | 0.00 | 57 | 1012.1 |
| 20260507072533 | 61 | 180 | 11.3 | 16.5 | 0.00 | 0.00 | 0.00 | 57 | 1011.9 |
| 20260507072034 | 61 | 180 | 11.3 | 16.5 | 0.00 | 0.00 | 0.00 | 57 | 1011.8 |
| 20260507071535 | 61 | 180 | 9.6 | 16.5 | 0.00 | 0.00 | 0.00 | 57 | 1011.9 |
| 20260507071029 | 61 | 180 | 9.6 | 14.8 | 0.00 | 0.00 | 0.00 | 58 | 1012.0 |
| 20260507070530 | 61 | 180 | 9.6 | 14.8 | 0.00 | 0.00 | 0.00 | 57 | 1012.0 |
| 20260507070032 | 61 | 180 | 9.6 | 15.6 | 0.00 | 0.00 | 0.00 | 57 | 1012.1 |
| 20260507065524 | 61 | 180 | 8.7 | 15.6 | 0.00 | 0.00 | 0.00 | 56 | 1012.0 |
| 20260507065241 | 61 | 180 | 7.8 | 13.0 | 0.00 | 0.00 | 0.00 | 56 | 1012.0 |
| 20260507064517 | 61 | 180 | 8.7 | 13.0 | 0.00 | 0.00 | 0.00 | 56 | 1012.0 |
| 20260507064017 | 62 | 180 | 8.7 | 13.9 | 0.00 | 0.00 | 0.00 | 55 | 1012.0 |
| 20260507063517 | 62 | 180 | 8.7 | 13.9 | 0.00 | 0.00 | 0.00 | 55 | 1011.9 |
| 20260507063017 | 62 | 180 | 9.6 | 15.6 | 0.00 | 0.00 | 0.00 | 54 | 1011.8 |
| 20260507062518 | 62 | 180 | 9.6 | 15.6 | 0.00 | 0.00 | 0.00 | 55 | 1011.7 |
| 20260507062012 | 62 | 180 | 10.4 | 16.5 | 0.00 | 0.00 | 0.00 | 55 | 1011.7 |
| 20260507061514 | 62 | 180 | 11.3 | 16.5 | 0.00 | 0.00 | 0.00 | 54 | 1011.8 |
| 20260507061014 | 62 | 180 | 11.3 | 15.6 | 0.00 | 0.00 | 0.00 | 54 | 1011.8 |
| 20260507060514 | 62 | 180 | 10.4 | 13.9 | 0.00 | 0.00 | 0.00 | 54 | 1011.8 |
| 20260507060013 | 63 | 180 | 9.6 | 13.9 | 0.00 | 0.00 | 0.00 | 54 | 1011.9 |
| 20260507055514 | 63 | 180 | 9.6 | 13.0 | 0.00 | 0.00 | 0.00 | 54 | 1011.8 |
| 20260507055014 | 62 | 180 | 8.7 | 14.8 | 0.00 | 0.00 | 0.00 | 54 | 1011.9 |
| 20260507054743 | 63 | 180 | 7.8 | 14.8 | 0.00 | 0.00 | 0.00 | 54 | 1011.9 |
| 20260507054013 | 63 | 180 | 7.8 | 13.0 | 0.00 | 0.00 | 0.00 | 54 | 1011.9 |
| 20260507053512 | 63 | 180 | 7.8 | 13.9 | 0.00 | 0.00 | 0.00 | 54 | 1011.9 |
| 20260507053014 | 63 | 180 | 8.7 | 13.9 | 0.00 | 0.00 | 0.00 | 54 | 1011.8 |
| 20260507052514 | 63 | 180 | 8.7 | 13.9 | 0.00 | 0.00 | 0.00 | 53 | 1011.9 |
| 20260507052233 | 64 | 180 | 9.6 | 13.9 | 0.00 | 0.00 | 0.00 | 53 | 1011.8 |
| 20260507051514 | 64 | 180 | 10.4 | 14.8 | 0.00 | 0.00 | 0.00 | 53 | 1011.8 |
| 20260507051014 | 64 | 180 | 10.4 | 14.8 | 0.00 | 0.00 | 0.00 | 52 | 1011.7 |
| 20260507050514 | 64 | 180 | 8.7 | 13.0 | 0.00 | 0.00 | 0.00 | 52 | 1011.7 |
| 20260507050014 | 64 | 180 | 7.8 | 13.0 | 0.00 | 0.00 | 0.00 | 52 | 1011.8 |
| 20260507045506 | 65 | 180 | 7.8 | 13.9 | 0.00 | 0.00 | 0.00 | 52 | 1011.8 |
| 20260507045006 | 65 | 180 | 7.8 | 13.9 | 0.00 | 0.00 | 0.00 | 52 | 1011.6 |
| 20260507044503 | 65 | 180 | 7.8 | 13.0 | 0.00 | 0.00 | 0.00 | 53 | 1011.6 |
| 20260507043956 | 65 | 180 | 8.7 | 13.0 | 0.00 | 0.00 | 0.00 | 53 | 1011.5 |
| 20260507043458 | 65 | 180 | 8.7 | 13.0 | 0.00 | 0.00 | 0.00 | 52 | 1011.5 |
| 20260507042957 | 65 | 180 | 7.8 | 12.2 | 0.00 | 0.00 | 0.00 | 53 | 1011.4 |
| 20260507042459 | 65 | 180 | 7.8 | 12.2 | 0.00 | 0.00 | 0.00 | 52 | 1011.5 |
| 20260507041954 | 65 | 180 | 7.0 | 11.3 | 0.00 | 0.00 | 0.00 | 54 | 1011.5 |
| 20260507041455 | 65 | 180 | 7.8 | 12.2 | 0.00 | 0.00 | 0.00 | 54 | 1011.5 |
| 20260507040951 | 66 | 180 | 8.7 | 12.2 | 0.00 | 0.00 | 0.00 | 53 | 1011.5 |
| 20260507040451 | 66 | 180 | 8.7 | 13.0 | 0.00 | 0.00 | 0.00 | 52 | 1011.3 |
| 20260507035951 | 67 | 180 | 9.6 | 13.0 | 0.00 | 0.00 | 0.00 | 51 | 1011.2 |
| 20260507035707 | 67 | 180 | 9.6 | 14.8 | 0.00 | 0.00 | 0.00 | 52 | 1011.1 |
| 20260507034946 | 67 | 180 | 11.3 | 16.5 | 0.00 | 0.00 | 0.00 | 51 | 1011.0 |
| 20260507034449 | 67 | 180 | 10.4 | 16.5 | 0.00 | 0.00 | 0.00 | 51 | 1011.0 |
| 20260507033944 | 67 | 180 | 10.4 | 15.6 | 0.00 | 0.00 | 0.00 | 50 | 1010.9 |
| 20260507033443 | 68 | 180 | 10.4 | 15.6 | 0.00 | 0.00 | 0.00 | 50 | 1010.8 |
| 20260507032944 | 68 | 180 | 8.7 | 14.8 | 0.00 | 0.00 | 0.00 | 50 | 1010.6 |
| 20260507032444 | 68 | 180 | 9.6 | 13.0 | 0.00 | 0.00 | 0.00 | 49 | 1010.4 |
| 20260507031943 | 68 | 180 | 9.6 | 13.0 | 0.00 | 0.00 | 0.00 | 50 | 1010.3 |
| 20260507031442 | 68 | 180 | 8.7 | 13.0 | 0.00 | 0.00 | 0.00 | 49 | 1010.5 |
| 20260507030942 | 69 | 180 | 8.7 | 13.9 | 0.00 | 0.00 | 0.00 | 51 | 1010.4 |
| 20260507030443 | 69 | 180 | 7.8 | 13.9 | 0.00 | 0.00 | 0.00 | 51 | 1010.2 |
| 20260507030207 | 69 | 180 | 7.0 | 12.2 | 0.00 | 0.00 | 0.00 | 52 | 1010.3 |
| 20260507025435 | 69 | 180 | 6.1 | 8.7 | 0.00 | 0.00 | 0.00 | 54 | 1010.4 |
| 20260507024935 | 69 | 180 | 7.8 | 12.2 | 0.00 | 0.00 | 0.00 | 53 | 1010.2 |
| 20260507024433 | 69 | 180 | 8.7 | 14.8 | 0.00 | 0.00 | 0.00 | 51 | 1010.2 |
| 20260507023933 | 69 | 180 | 6.1 | 14.8 | 0.00 | 0.00 | 0.00 | 51 | 1010.1 |
| 20260507023433 | 70 | 180 | 5.2 | 9.6 | 0.00 | 0.00 | 0.00 | 53 | 1010.2 |
| 20260507022932 | 70 | 180 | 7.0 | 13.0 | 0.00 | 0.00 | 0.00 | 52 | 1010.1 |
| 20260507022430 | 70 | 180 | 7.8 | 13.0 | 0.00 | 0.00 | 0.00 | 51 | 1009.9 |
| 20260507021932 | 70 | 180 | 7.8 | 14.8 | 0.00 | 0.00 | 0.00 | 52 | 1009.8 |
| 20260507021429 | 70 | 180 | 7.0 | 14.8 | 0.00 | 0.00 | 0.00 | 51 | 1009.8 |
| 20260507020928 | 70 | 180 | 5.2 | 9.6 | 0.00 | 0.00 | 0.00 | 53 | 1009.7 |
| 20260507020651 | 70 | 180 | 5.2 | 9.6 | 0.00 | 0.00 | 0.00 | 55 | 1009.6 |
| 20260507020151 | 71 | 180 | 7.0 | 9.6 | 0.00 | 0.00 | 0.00 | 56 | 1009.7 |
| 20260507015428 | 71 | 180 | 7.0 | 11.3 | 0.00 | 0.00 | 0.00 | 55 | 1009.6 |
| 20260507014927 | 71 | 180 | 6.1 | 11.3 | 0.00 | 0.00 | 0.00 | 54 | 1009.6 |
| 20260507014425 | 71 | 180 | 5.2 | 9.6 | 0.00 | 0.00 | 0.00 | 55 | 1009.6 |
| 20260507013924 | 71 | 180 | 5.2 | 7.8 | 0.00 | 0.00 | 0.00 | 55 | 1009.5 |
| 20260507013427 | 71 | 180 | 5.2 | 8.7 | 0.00 | 0.00 | 0.00 | 56 | 1009.4 |
| 20260507012923 | 71 | 180 | 5.2 | 10.4 | 0.00 | 0.00 | 0.00 | 55 | 1009.4 |
| 20260507012422 | 72 | 180 | 4.3 | 10.4 | 0.00 | 0.00 | 0.00 | 55 | 1009.4 |
| 20260507011923 | 72 | 180 | 5.2 | 9.6 | 0.00 | 0.00 | 0.00 | 55 | 1009.4 |
| 20260507011417 | 72 | 180 | 4.3 | 9.6 | 0.00 | 0.00 | 0.00 | 55 | 1009.4 |
| 20260507011134 | 72 | 180 | 5.2 | 10.4 | 0.00 | 0.00 | 0.00 | 56 | 1009.4 |
| 20260507010416 | 72 | 180 | 5.2 | 11.3 | 0.00 | 0.00 | 0.00 | 55 | 1009.5 |
| 20260507005914 | 73 | 180 | 6.1 | 11.3 | 0.00 | 0.00 | 0.00 | 55 | 1009.5 |
| 20260507005415 | 73 | 222 | 7.0 | 12.2 | 0.00 | 0.00 | 0.00 | 54 | 1009.5 |
| 20260507004915 | 73 | 206 | 7.0 | 12.2 | 0.00 | 0.00 | 0.00 | 52 | 1009.4 |
| 20260507004411 | 73 | 199 | 6.1 | 11.3 | 0.00 | 0.00 | 0.00 | 54 | 1009.4 |
| 20260507003910 | 74 | 200 | 7.0 | 11.3 | 0.00 | 0.00 | 0.00 | 53 | 1009.5 |
| 20260507003411 | 74 | 248 | 7.0 | 11.3 | 0.00 | 0.00 | 0.00 | 51 | 1009.4 |
| 20260507003129 | 74 | 218 | 7.0 | 10.4 | 0.00 | 0.00 | 0.00 | 53 | 1009.4 |
| 20260507002406 | 75 | 228 | 7.8 | 11.3 | 0.00 | 0.00 | 0.00 | 51 | 1009.3 |
| 20260507001907 | 75 | 239 | 7.8 | 13.0 | 0.00 | 0.00 | 0.00 | 52 | 1009.2 |
| 20260507001400 | 75 | 217 | 7.8 | 13.0 | 0.00 | 0.00 | 0.00 | 49 | 1009.2 |
| 20260507000901 | 76 | 195 | 7.0 | 11.3 | 0.00 | 0.00 | 0.00 | 51 | 1009.2 |
| 20260507000401 | 77 | 232 | 6.1 | 11.3 | 0.00 | 0.00 | 0.00 | 47 | 1009.3 |